Theta_e
315 315 314 313 313 313 312 312 312 313 315 315 314 313 313 313 313 314 314 312 312 313 313 313 315 314 295 288 289 299 308 305 301 300 296 296 294 289 284 287 287 286 289 290 291 291 290
316 315 314 314 313 314 313 313 313 313 315 314 313 313 314 314 313 314 313 311 312 313 313 313 315 310 290 283 297 298 299 300 298 298 295 297 295 295 290 287 284 288 289 288 289 289 289
316 315 314 314 314 314 314 314 314 313 315 314 313 313 313 314 314 313 312 312 312 313 313 313 314 301 290 287 296 298 299 297 298 297 293 296 298 294 292 287 291 290 285 285 285 286 286
317 317 316 315 315 314 315 314 313 313 314 313 313 313 313 313 313 312 311 312 312 313 312 313 311 292 285 295 297 297 298 296 298 299 297 298 299 296 292 291 287 282 280 277 282 286 287
317 317 316 317 315 314 315 313 313 314 313 313 313 312 312 313 312 311 311 311 312 310 310 307 294 286 283 300 294 296 296 294 296 296 297 301 297 289 287 281 278 280 276 277 280 286 285
318 317 318 317 316 315 315 314 313 314 313 313 313 312 312 312 310 312 309 309 307 302 299 295 294 284 288 289 294 296 296 297 294 292 291 290 286 281 281 280 273 277 277 279 279 283 285
320 319 318 318 317 315 315 315 314 314 314 313 312 312 312 311 310 309 299 290 287 286 291 285 286 286 289 294 295 294 296 293 292 289 282 285 280 278 279 281 282 281 279 279 282 285 282
320 319 319 319 318 317 316 316 314 313 313 312 312 312 311 310 309 307 297 291 290 291 283 289 289 290 292 292 288 291 296 288 287 282 284 280 277 282 285 284 282 281 280 279 282 284 284
320 319 319 319 318 317 316 316 315 314 313 312 311 312 310 308 306 298 295 294 300 296 283 285 288 289 289 291 286 288 292 288 284 281 281 278 279 285 284 281 281 281 280 280 280 282 283
320 319 319 318 317 317 316 316 315 314 313 311 311 311 308 308 297 294 292 299 299 295 276 280 284 288 290 289 283 291 293 289 284 280 281 279 283 282 281 281 282 279 282 281 280 278 270
320 319 318 318 317 316 316 315 315 313 312 310 311 309 307 302 293 289 295 299 296 289 270 281 284 293 290 286 286 286 292 288 281 281 280 276 279 280 280 281 284 280 283 281 280 278 279
320 319 318 318 317 316 316 315 314 313 311 310 311 307 307 299 294 294 297 294 290 278 269 277 282 283 282 284 284 286 286 289 286 280 280 279 283 282 281 284 283 283 281 280 279 278 267
321 320 318 318 317 316 316 315 314 313 311 312 309 306 300 299 290 296 294 287 276 272 278 273 278 282 281 281 281 281 281 280 277 269 270 276 277 280 283 279 282 281 275 264 265 263 265
321 320 318 318 317 316 316 315 314 313 312 311 306 301 298 296 294 294 288 280 270 266 267 280 280 281 278 279 280 279 280 276 280 275 270 268 267 278 281 279 277 279 274 265 262 263 270
321 320 319 318 317 316 316 315 314 313 312 309 303 293 292 293 295 290 282 271 274 270 275 277 276 269 268 277 277 276 275 276 279 279 268 268 270 279 279 280 281 275 270 280 275 271 272
320 320 319 317 317 316 315 314 313 312 311 306 293 291 290 294 293 285 277 277 273 280 282 278 270 268 265 265 273 274 272 278 280 282 280 275 266 277 279 281 282 278 282 271 270 265 265
318 319 318 317 316 316 315 314 313 312 309 304 292 286 292 294 289 281 273 270 276 282 283 278 270 265 268 267 270 267 270 278 280 280 280 278 273 273 277 276 275 272 270 276 277 275 270
316 318 318 318 316 316 315 314 313 312 308 300 290 281 292 291 278 269 272 274 284 282 284 282 279 276 270 270 266 270 272 276 282 280 273 280 273 268 271 277 278 278 275 279 272 271 274
314 316 317 317 316 316 315 314 313 311 307 295 287 285 293 289 277 274 273 282 283 282 282 282 280 281 277 270 268 270 275 281 282 281 275 277 267 263 266 273 277 276 279 279 278 275 271
312 313 315 317 317 316 315 314 312 311 308 296 288 282 285 286 282 279 275 277 279 284 282 283 282 281 277 271 276 269 276 280 282 281 286 283 271 264 263 270 273 272 275 277 276 272 273
310 312 313 315 316 316 315 314 312 311 307 297 289 285 283 278 279 280 281 280 279 277 282 283 281 281 278 269 271 269 275 277 280 283 280 279 267 267 271 273 273 273 273 275 273 275 273
308 310 312 313 315 316 315 314 312 310 305 295 286 285 283 279 283 280 283 278 279 278 281 280 278 281 279 274 275 269 273 275 276 278 277 278 265 273 267 273 274 272 275 276 277 278 278
307 309 311 313 314 315 314 314 312 309 305 294 291 290 289 284 282 279 279 281 280 282 282 283 281 280 279 280 279 278 279 279 279 276 273 274 269 264 260 270 270 267 276 280 278 282 282
307 307 309 311 313 314 314 313 311 307 305 297 292 291 288 282 283 282 282 282 281 282 280 281 282 280 281 281 280 277 275 279 278 277 281 270 268 266 261 263 259 277 277 278 278 281 284
306 306 308 310 312 313 314 312 310 307 307 300 295 294 291 284 284 283 282 282 283 283 281 281 281 282 282 279 272 262 261 265 264 274 277 280 273 265 258 261 268 275 278 277 277 279 282
303 305 307 308 310 312 313 312 311 308 308 302 297 299 295 287 284 286 283 283 281 280 280 279 281 281 280 275 263 260 261 256 260 263 276 278 277 266 257 259 256 272 279 281 282 275 282
302 304 306 308 309 311 312 312 311 309 308 304 297 300 297 288 287 287 284 282 285 283 280 277 279 279 279 268 258 259 260 261 262 259 266 266 270 264 258 259 263 274 277 281 272 276 280
300 304 305 307 308 310 312 312 312 309 308 306 293 297 299 288 285 286 287 284 283 284 280 279 279 275 269 265 264 260 259 264 262 266 268 265 265 261 262 260 261 275 278 276 280 282 279
297 304 305 307 308 309 311 312 311 309 308 305 291 294 293 287 283 285 284 285 285 287 282 279 277 273 277 268 262 261 260 260 259 262 272 265 271 267 268 269 277 279 282 283 282 282 278
Wind_Speed
7 7 6 4 4 4 3 4 5 6 8 8 10 11 11 12 13 14 14 15 15 14 14 14 15 14 5 8 2 6 16 15 5 6 8 5 10 3 4 3 5 2 5 8 9 9 8
8 8 6 5 5 5 4 4 5 6 7 8 9 9 11 12 12 14 15 15 14 13 13 13 15 9 6 7 6 7 9 9 7 5 6 7 4 2 4 1 1 4 5 10 6 8 7
10 9 7 6 6 6 6 6 6 6 7 8 9 9 11 12 13 14 15 16 13 11 11 10 11 3 7 2 4 7 8 5 4 3 3 2 1 6 1 4 2 4 7 8 1 6 7
12 12 10 9 7 8 7 6 7 6 7 8 8 9 11 12 13 15 16 16 11 8 8 8 6 3 3 4 4 6 9 4 5 1 1 2 2 3 4 5 5 5 4 7 7 9 5
13 11 11 11 8 6 6 5 6 6 7 8 9 9 9 11 14 16 17 11 5 6 5 6 5 3 3 8 8 9 5 5 7 4 5 2 4 4 6 4 4 7 5 5 9 7 5
14 13 12 12 10 9 8 6 6 6 7 9 9 9 9 10 13 17 12 3 6 5 6 2 3 5 7 6 6 8 5 4 4 5 6 9 6 4 5 7 3 8 5 5 12 8 10
15 14 13 12 11 10 8 8 7 8 7 8 9 9 9 10 13 15 6 4 7 7 11 4 1 0 5 9 3 7 5 4 5 9 6 5 7 4 3 2 4 6 5 13 12 13 5
16 15 15 13 12 11 9 8 8 7 8 8 8 8 7 9 11 12 4 6 1 2 5 3 2 3 2 3 5 8 7 7 7 5 8 5 3 1 4 3 5 5 7 11 11 6 15
17 17 16 15 14 12 10 9 9 7 7 7 8 7 8 9 5 6 5 3 3 1 5 3 3 3 4 5 3 8 7 3 5 5 5 1 1 4 3 5 4 4 7 6 13 16 16
19 18 18 16 15 14 12 10 9 7 5 6 5 6 8 8 6 2 3 3 3 3 7 5 4 4 4 3 1 3 5 2 5 5 4 4 3 4 5 2 2 9 1 9 17 12 5
21 20 19 16 15 13 12 11 10 7 6 4 4 2 6 5 5 3 1 2 1 3 5 2 6 4 5 6 5 3 5 5 1 4 2 3 6 5 3 3 3 10 10 16 14 9 7
22 21 20 18 16 16 14 12 11 9 7 5 3 1 1 3 4 1 2 2 3 10 6 3 2 6 4 6 7 8 8 6 1 1 0 5 4 3 3 3 4 9 9 9 1 2 3
24 23 21 20 18 17 16 15 13 11 8 6 5 4 4 1 2 0 2 4 8 7 4 6 2 4 2 6 6 8 6 9 6 8 9 9 3 4 2 6 5 9 6 6 9 6 6
26 24 23 22 20 18 18 17 15 13 10 10 8 7 4 1 2 2 4 7 6 3 6 3 3 2 3 6 3 7 2 4 5 5 3 4 12 4 3 1 5 5 2 5 5 5 13
26 25 24 25 23 22 21 19 17 15 13 12 10 3 3 3 2 3 6 5 9 8 6 6 2 6 5 3 1 5 4 0 1 3 4 4 8 3 3 4 4 6 2 4 6 5 6
23 28 26 26 26 25 22 22 20 18 17 16 4 3 1 2 2 4 7 5 3 3 5 4 4 2 2 4 4 4 3 3 2 1 2 1 7 2 6 3 1 4 4 5 3 6 7
20 22 25 27 27 26 25 24 23 21 21 14 4 2 1 1 2 6 4 7 4 3 3 3 5 3 3 2 2 1 4 3 1 0 2 2 4 8 5 1 1 5 5 3 3 3 5
21 21 26 27 27 27 27 27 26 25 23 8 4 1 1 3 4 1 4 7 4 4 2 2 4 4 5 5 2 2 4 4 2 0 2 1 3 6 8 8 6 3 5 1 2 5 5
22 19 20 25 26 27 29 29 30 29 28 7 5 3 0 3 4 2 4 1 3 5 4 5 3 2 3 5 2 3 4 2 3 4 4 2 3 6 11 6 3 2 3 1 3 3 8
21 23 18 22 26 29 31 31 32 35 28 6 4 4 2 2 1 7 6 4 4 1 4 4 4 4 4 2 1 3 3 1 1 1 2 5 3 8 8 9 2 10 12 12 6 5 5
22 22 23 21 22 28 31 32 36 36 27 5 1 4 3 6 5 4 5 7 6 6 2 4 1 6 6 4 0 4 3 2 1 2 2 3 4 4 11 19 14 16 19 18 8 15 6
27 22 23 23 22 25 30 34 38 36 27 2 6 6 1 1 4 8 5 8 11 4 9 5 5 8 7 7 8 9 6 4 5 1 3 1 4 4 6 4 3 14 17 16 14 14 14
29 25 22 24 24 24 29 35 39 41 27 5 2 2 2 5 4 5 6 7 9 9 4 2 8 6 7 9 6 3 2 2 4 7 4 4 1 4 8 6 10 5 5 4 6 7 5
29 29 24 23 24 23 25 33 37 41 31 5 4 5 4 3 4 6 6 4 7 8 7 3 5 5 2 7 8 7 7 5 3 2 2 4 2 1 6 9 5 6 6 7 8 13 5
26 28 25 21 25 24 25 35 41 45 38 7 5 5 4 4 4 3 7 5 7 4 3 5 2 2 7 4 4 6 7 7 5 2 3 4 2 2 1 2 10 7 2 2 1 6 3
24 25 26 20 21 28 26 32 40 45 40 10 7 3 4 7 11 9 7 4 5 4 3 2 3 2 5 4 5 4 5 4 4 6 2 5 4 5 1 1 5 6 4 0 3 5 3
23 25 28 21 20 24 25 31 37 40 39 15 6 6 5 3 1 8 7 11 7 5 4 3 5 3 3 3 4 4 5 2 3 7 7 3 3 6 4 5 12 13 8 1 4 6 4
24 25 28 24 21 19 20 27 36 42 39 16 3 6 8 4 1 2 4 8 5 4 7 6 5 2 3 3 5 5 4 6 1 4 7 9 9 6 4 3 10 9 1 5 3 2 2
22 25 26 20 17 18 19 23 30 40 39 17 3 3 7 7 3 2 4 4 3 5 8 4 3 6 6 6 0 4 2 2 2 4 1 4 9 7 12 11 4 4 5 3 3 2 1
Wind_Direction
242 243 249 264 286 300 305 324 323 326 334 343 345 341 339 336 336 334 339 337 341 346 347 353 352 351 58 42 61 298 332 336 0 8 25 30 41 37 63 345 346 49 321 315 305 302 289
243 244 245 252 272 290 274 299 310 319 323 334 339 338 334 332 333 333 332 330 335 345 348 351 357 3 62 71 255 325 331 336 0 16 6 28 48 101 97 344 53 304 286 289 298 314 302
242 239 239 246 260 267 265 283 301 309 317 326 333 335 335 333 330 331 324 322 327 337 339 346 356 39 62 140 332 330 342 300 306 353 13 29 46 61 348 345 4 308 325 328 23 324 300
238 243 237 239 248 257 259 277 297 299 312 319 328 333 333 330 329 323 319 316 319 329 328 337 11 55 78 328 312 349 333 356 352 358 299 359 60 79 41 322 13 20 50 359 325 321 299
240 242 236 247 230 247 242 265 284 283 304 317 323 330 333 330 328 320 319 316 338 337 344 4 46 40 0 331 6 322 357 320 306 6 24 56 59 72 12 29 20 19 302 301 311 293 271
230 235 243 253 226 236 240 248 263 275 301 313 320 327 331 330 329 328 327 352 352 52 359 15 68 47 19 310 299 315 315 353 12 354 14 30 42 68 28 33 338 304 310 284 291 276 307
226 227 233 236 231 236 239 237 255 268 292 307 317 326 330 335 339 349 1 12 20 353 39 92 288 97 315 296 282 326 333 3 19 55 17 345 54 44 344 300 252 260 260 282 280 288 298
226 228 228 227 222 228 234 233 246 260 281 301 313 320 327 337 347 3 61 70 50 175 74 13 328 343 272 319 349 331 14 49 42 18 341 16 66 358 296 307 277 279 285 293 293 321 312
222 228 228 225 214 220 224 227 233 251 273 297 312 315 323 330 350 38 69 68 319 266 96 12 360 349 324 10 346 312 28 24 62 22 19 155 251 323 29 320 337 295 266 295 293 318 293
222 222 228 219 214 207 217 220 220 226 240 289 303 315 335 327 48 306 42 337 344 280 75 315 339 350 340 342 77 307 14 40 8 351 335 228 306 354 330 302 33 312 341 302 291 332 289
220 219 222 219 206 206 207 214 207 213 225 249 273 311 28 52 146 70 180 341 4 29 33 289 314 302 338 59 305 328 344 22 340 306 42 282 328 352 326 348 356 263 320 285 294 285 287
220 218 215 216 205 200 200 208 203 198 206 224 199 252 329 18 56 354 350 32 53 45 267 335 312 353 12 13 359 318 3 28 264 348 121 266 303 242 253 301 261 294 300 298 295 269 8
220 216 213 210 208 199 194 196 200 193 193 193 152 91 61 20 148 333 47 45 42 124 352 289 348 29 91 345 352 23 18 17 29 25 6 328 272 292 358 350 341 358 354 340 357 3 232
223 216 214 206 205 200 193 190 190 186 179 158 130 100 23 24 123 113 52 49 87 217 219 355 348 47 71 3 13 350 23 32 25 63 58 21 330 22 17 118 286 320 107 131 291 298 292
229 218 213 207 204 202 193 188 183 175 161 148 123 18 47 330 50 74 78 56 203 202 170 149 10 64 326 356 5 18 15 191 63 54 118 20 282 311 256 224 132 293 352 220 269 265 272
242 227 213 208 203 197 191 184 177 165 154 147 101 100 213 313 94 65 75 232 171 184 132 99 147 123 177 287 7 45 341 271 114 104 170 194 298 274 297 325 234 161 297 354 337 313 292
249 237 221 210 205 198 188 184 170 161 154 144 84 76 227 11 80 51 168 214 203 222 122 116 183 123 196 197 190 243 250 283 12 157 356 109 130 292 346 120 106 340 352 342 267 240 291
249 244 231 214 204 199 189 181 168 160 150 136 136 152 217 106 63 318 163 183 175 140 137 97 112 114 155 164 177 260 242 224 10 137 117 109 176 277 263 279 257 246 203 127 256 311 275
259 245 237 215 205 199 190 180 168 162 159 129 150 131 348 124 163 231 310 132 172 133 171 162 144 125 144 161 27 211 255 275 284 196 163 205 331 320 346 353 15 311 223 230 301 261 237
264 253 239 238 210 198 191 181 173 164 168 110 143 131 340 59 265 145 145 212 164 185 138 134 132 124 108 88 172 246 247 260 309 238 263 173 162 180 207 240 15 296 292 285 269 260 273
249 258 244 237 232 209 192 181 172 169 167 106 194 206 192 189 235 176 141 148 131 168 169 170 171 207 156 152 359 237 257 291 193 286 91 114 239 198 249 263 272 269 273 284 256 251 260
245 248 252 235 233 223 203 185 171 168 153 123 143 154 78 136 125 126 174 210 160 197 151 212 211 185 163 172 187 205 157 216 199 224 146 80 271 315 287 282 114 282 274 261 260 266 265
247 240 250 241 225 222 197 192 181 161 148 162 166 81 164 153 136 124 209 185 189 145 238 167 176 126 194 230 174 151 163 156 177 156 182 163 117 15 272 323 312 335 243 254 267 242 253
242 240 238 243 231 215 204 184 176 163 173 129 191 122 140 166 168 202 161 132 161 194 152 147 142 137 167 109 96 52 46 34 55 289 238 126 86 113 278 330 14 248 302 245 245 280 252
243 235 229 238 230 220 205 189 175 175 176 132 163 148 137 141 165 131 138 121 96 98 84 134 102 79 142 87 62 26 346 12 329 326 237 216 154 280 177 247 294 303 218 348 35 285 222
249 240 234 232 237 219 206 193 185 181 182 159 162 105 106 126 216 132 135 162 144 140 108 59 53 68 76 79 74 136 237 211 296 358 283 205 158 123 68 137 231 242 182 303 163 279 202
276 244 234 219 236 213 209 198 187 184 183 168 152 152 119 138 214 141 164 172 152 127 122 134 167 126 21 102 97 156 249 206 233 167 182 184 185 210 197 253 283 250 261 244 77 267 3
290 241 230 214 221 212 201 202 192 182 182 179 113 167 155 123 101 322 153 139 127 153 148 158 105 297 52 120 139 202 158 215 95 206 177 172 157 205 170 208 284 188 359 195 186 23 344
307 234 218 208 207 215 200 198 189 184 181 164 125 88 90 85 97 62 59 10 41 117 131 182 142 157 163 95 86 98 166 90 167 264 155 248 191 180 188 216 252 216 239 223 144 142 266